K0IMS Weather Reports


time (UTC)temp
F
wind
direction
speed
knots
gust
knots
rain 1hr
in
rain 24hr
in
rain mn
in
humidity
%
barometer
mb
20260504130516 59 315 0.9 3.5 0.00 0.00 0.00 43 996.3
20260504110517 60 248 2.6 6.1 0.00 0.00 0.00 33 994.3
20260504100516 59 203 2.6 6.1 0.00 0.00 0.00 32 994.4
20260504081516 58 203 1.7 2.6 0.00 0.00 0.00 33 996.5
20260504081015 58 203 0.9 4.3 0.00 0.00 0.00 33 996.6
20260504080515 58 203 0.9 1.7 0.00 0.00 0.00 35 996.6
20260504050538 57 203 0.9 1.7 0.00 0.00 0.00 37 1000.1
20260504050016 57 0.0 1.7 0.00 0.00 0.00 37 1000.2
20260504045518 57 203 0.9 0.9 0.00 0.00 0.00 36 1000.3
20260504045017 57 180 0.9 0.9 0.00 0.00 0.00 37 1000.4
20260504044517 57 0.0 1.7 0.00 0.00 0.00 37 1000.4
20260504044037 57 0.0 1.7 0.00 0.00 0.00 36 1000.5
20260504043537 56 0.0 1.7 0.00 0.00 0.00 36 1000.6
20260504043016 56 248 0.9 0.9 0.00 0.00 0.00 37 1000.7
20260504042537 56 248 0.9 0.9 0.00 0.00 0.00 38 1000.8
20260504042017 56 0.0 1.7 0.00 0.00 0.00 39 1000.9
20260504041518 56 0.0 0.9 0.00 0.00 0.00 38 1001.0
20260504041037 56 0.0 0.9 0.00 0.00 0.00 38 1001.1
20260504040517 56 0.0 32.2 0.00 0.00 0.00 37 1001.3
20260504040017 56 0.0 0.9 0.00 0.00 0.00 37 1001.3
20260504035516 56 0.0 1.7 0.00 0.00 0.00 38 1001.4
20260504035017 56 0.0 0.9 0.00 0.00 0.00 38 1001.5
20260504034516 56 0.0 0.9 0.00 0.00 0.00 38 1001.6
20260504034017 56 0.0 1.7 0.00 0.00 0.00 38 1001.7
20260504033516 57 0.0 1.7 0.00 0.00 0.00 39 1001.8
20260504033016 57 0.0 1.7 0.00 0.00 0.00 38 1001.8
20260504032516 57 0.0 1.7 0.00 0.00 0.00 37 1002.0
20260504032016 57 0.0 0.9 0.00 0.00 0.00 36 1002.1
20260504031517 58 0.0 1.7 0.00 0.00 0.00 36 1002.2
20260504031017 58 0.0 1.7 0.00 0.00 0.00 33 1002.3
20260504030516 58 0.0 0.9 0.00 0.00 0.00 33 1002.3
20260504030018 58 0.0 0.9 0.00 0.00 0.00 33 1002.3
20260504025517 59 0.0 1.7 0.00 0.00 0.00 33 1002.4
20260504025056 59 0.0 0.0 0.00 0.00 0.00 33 1002.5
20260504024516 60 0.0 0.0 0.00 0.00 0.00 31 1002.5
20260504024016 60 0.0 0.0 0.00 0.00 0.00 31 1002.6
20260504023516 61 0.0 0.0 0.00 0.00 0.00 29 1002.5
20260504023016 61 0.0 1.7 0.00 0.00 0.00 29 1002.6
20260504022537 61 0.0 1.7 0.00 0.00 0.00 28 1002.6
20260504022016 62 0.0 1.7 0.00 0.00 0.00 27 1002.7
20260504021517 62 0.0 1.7 0.00 0.00 0.00 27 1002.7
20260504021016 62 0.0 1.7 0.00 0.00 0.00 26 1002.7
20260504020516 62 0.0 0.9 0.00 0.00 0.00 26 1002.6
20260504020016 63 0.0 0.9 0.00 0.00 0.00 26 1002.6
20260504015516 63 0.0 1.7 0.00 0.00 0.00 25 1002.6
20260504015016 63 0.0 1.7 0.00 0.00 0.00 25 1002.6
20260504014536 64 0.0 1.7 0.00 0.00 0.00 24 1002.7
20260504014037 64 0.0 1.7 0.00 0.00 0.00 24 1002.7
20260504013517 64 0.0 1.7 0.00 0.00 0.00 23 1002.7
20260504013036 65 0.0 0.9 0.00 0.00 0.00 23 1002.6
20260504012537 65 0.0 1.7 0.00 0.00 0.00 22 1002.6
20260504012016 65 0.0 1.7 0.00 0.00 0.00 22 1002.7
20260504011516 66 0.0 1.7 0.00 0.00 0.00 21 1002.7
20260504011016 66 0.0 1.7 0.00 0.00 0.00 22 1002.7
20260504010516 67 248 0.9 1.7 0.00 0.00 0.00 21 1002.7
20260504010016 67 270 0.9 2.6 0.00 0.00 0.00 21 1002.7
20260504005538 67 248 0.9 2.6 0.00 0.00 0.00 20 1002.8
20260504005016 67 248 0.9 2.6 0.00 0.00 0.00 19 1002.8
20260504004537 68 248 0.9 1.7 0.00 0.00 0.00 19 1002.9
20260504004016 68 248 0.9 3.5 0.00 0.00 0.00 19 1002.9
20260504003516 68 293 0.9 3.5 0.00 0.00 0.00 18 1002.9
20260504003016 68 270 0.9 2.6 0.00 0.00 0.00 19 1002.9
20260504002516 68 293 0.9 3.5 0.00 0.00 0.00 18 1002.9
20260504002017 69 225 1.7 5.2 0.00 0.00 0.00 18 1003.0
20260504001516 69 270 1.7 5.2 0.00 0.00 0.00 18 1003.0
20260504001017 69 293 0.9 4.3 0.00 0.00 0.00 19 1003.0
20260504000515 69 293 1.7 3.5 0.00 0.00 0.00 18 1003.1
20260504000016 70 315 0.9 5.2 0.00 0.00 0.00 18 1003.1
20260503235556 70 248 0.9 4.3 0.00 0.00 0.00 17 1003.2
20260503235017 70 293 1.7 3.5 0.00 0.00 0.00 17 1003.1
20260503234515 71 225 0.9 5.2 0.00 0.00 0.00 17 1003.2
20260503234016 71 225 1.7 7.0 0.00 0.00 0.00 17 1003.2
20260503233516 72 225 1.7 5.2 0.00 0.00 0.00 16 1003.3
20260503233016 72 248 1.7 6.1 0.00 0.00 0.00 16 1003.4
20260503232516 72 270 2.6 6.1 0.00 0.00 0.00 16 1003.5
20260503232037 73 315 1.7 4.3 0.00 0.00 0.00 15 1003.5
20260503231515 73 248 2.6 7.8 0.00 0.00 0.00 14 1003.5
20260503231016 73 315 0.9 4.3 0.00 0.00 0.00 15 1003.6
20260503230516 73 270 2.6 6.1 0.00 0.00 0.00 15 1003.6
20260503230036 73 225 1.7 7.0 0.00 0.00 0.00 15 1003.6
20260503225516 73 225 2.6 7.0 0.00 0.00 0.00 15 1003.7
20260503225015 74 225 1.7 8.7 0.00 0.00 0.00 16 1003.9
20260503224515 74 293 0.9 3.5 0.00 0.00 0.00 14 1003.9
20260503224015 74 338 0.9 3.5 0.00 0.00 0.00 15 1003.9
20260503223516 74 315 1.7 7.0 0.00 0.00 0.00 15 1003.9
20260503223036 74 270 1.7 4.3 0.00 0.00 0.00 14 1003.9
20260503222516 74 248 2.6 7.0 0.00 0.00 0.00 14 1004.0
20260503222016 74 248 2.6 7.0 0.00 0.00 0.00 14 1004.0
20260503221515 74 315 1.7 6.1 0.00 0.00 0.00 14 1004.0
20260503221015 74 0 0.9 2.6 0.00 0.00 0.00 14 1004.0
20260503220516 74 338 1.7 4.3 0.00 0.00 0.00 14 1004.1
20260503220015 74 338 0.9 2.6 0.00 0.00 0.00 14 1004.1
20260503215515 74 315 1.7 7.0 0.00 0.00 0.00 15 1004.1
20260503215015 73 248 1.7 6.1 0.00 0.00 0.00 15 1004.1
20260503214515 74 270 2.6 4.3 0.00 0.00 0.00 14 1004.2
20260503214038 73 338 0.9 4.3 0.00 0.00 0.00 15 1004.3
20260503213558 73 315 0.9 3.5 0.00 0.00 0.00 14 1004.3
20260503213017 73 293 1.7 4.3 0.00 0.00 0.00 14 1004.4
20260503212518 73 338 2.6 6.1 0.00 0.00 0.00 14 1004.5
20260503212017 73 338 0.9 3.5 0.00 0.00 0.00 16 1004.5
20260503211538 73 248 1.7 7.0 0.00 0.00 0.00 17 1004.6
20260503211018 73 315 1.7 6.1 0.00 0.00 0.00 17 1004.6
20260503210517 73 315 1.7 6.1 0.00 0.00 0.00 15 1004.6
20260503210017 73 315 0.9 3.5 0.00 0.00 0.00 15 1004.7
20260503205518 73 203 1.7 5.2 0.00 0.00 0.00 15 1004.7
20260503205017 73 315 1.7 4.3 0.00 0.00 0.00 16 1004.9
20260503204537 73 293 2.6 5.2 0.00 0.00 0.00 15 1004.9
20260503204017 73 248 1.7 6.1 0.00 0.00 0.00 15 1005.0
20260503203517 73 315 1.7 5.2 0.00 0.00 0.00 16 1005.1
20260503203017 72 315 0.9 2.6 0.00 0.00 0.00 16 1005.0
20260503202537 72 315 1.7 3.5 0.00 0.00 0.00 16 1005.1
20260503202017 72 338 1.7 3.5 0.00 0.00 0.00 16 1005.1
20260503201538 72 338 1.7 4.3 0.00 0.00 0.00 20 1005.2
20260503201017 71 270 1.7 5.2 0.00 0.00 0.00 17 1005.2
20260503200517 71 293 2.6 7.0 0.00 0.00 0.00 15 1005.2
20260503200017 71 338 1.7 4.3 0.00 0.00 0.00 16 1005.4
20260503195517 71 315 1.7 6.1 0.00 0.00 0.00 16 1005.3
20260503195022 71 270 2.6 7.0 0.00 0.00 0.00 15 1005.5
20260503194517 71 293 1.7 3.5 0.00 0.00 0.00 16 1005.4
20260503194017 70 338 1.7 4.3 0.00 0.00 0.00 17 1005.4
20260503193517 70 0 1.7 4.3 0.00 0.00 0.00 15 1005.5
20260503193017 70 338 1.7 6.1 0.00 0.00 0.00 17 1005.5
20260503192518 69 338 1.7 5.2 0.00 0.00 0.00 15 1005.7
20260503192017 69 338 1.7 6.1 0.00 0.00 0.00 16 1005.7
20260503191517 69 315 2.6 6.1 0.00 0.00 0.00 17 1005.8
20260503191017 69 338 2.6 10.4 0.00 0.00 0.00 18 1005.8
20260503190517 69 270 3.5 9.6 0.00 0.00 0.00 18 1005.7
20260503190017 69 315 2.6 7.0 0.00 0.00 0.00 20 1005.7
20260503185517 70 315 2.6 7.0 0.00 0.00 0.00 20 1005.8
20260503185017 70 0 1.7 5.2 0.00 0.00 0.00 21 1005.8
20260503184518 70 0 1.7 4.3 0.00 0.00 0.00 20 1005.7
20260503184017 69 315 1.7 7.0 0.00 0.00 0.00 19 1005.7
20260503183517 70 315 2.6 6.1 0.00 0.00 0.00 19 1005.9
20260503183017 70 315 1.7 5.2 0.00 0.00 0.00 20 1005.8
20260503182517 69 0 0.9 4.3 0.00 0.00 0.00 24 1005.7
20260503182017 69 0 2.6 5.2 0.00 0.00 0.00 21 1005.8
20260503181518 69 0 1.7 2.6 0.00 0.00 0.00 22 1005.8
20260503181016 69 0 1.7 9.6 0.00 0.00 0.00 21 1006.0
20260503180536 69 338 1.7 7.8 0.00 0.00 0.00 21 1006.0
20260503180016 69 315 2.6 5.2 0.00 0.00 0.00 20 1006.1
20260503175516 69 338 1.7 4.3 0.00 0.00 0.00 22 1006.1
20260503175058 69 0 2.6 7.8 0.00 0.00 0.00 22 1006.0
20260503174516 69 315 2.6 6.1 0.00 0.00 0.00 22 1006.1
20260503174016 69 315 1.7 4.3 0.00 0.00 0.00 26 1006.2
20260503173537 69 338 1.7 3.5 0.00 0.00 0.00 29 1006.1
20260503173017 69 0 1.7 5.2 0.00 0.00 0.00 28 1006.0
20260503172516 69 338 1.7 4.3 0.00 0.00 0.00 27 1006.1
20260503172016 68 338 1.7 6.1 0.00 0.00 0.00 26 1006.2
20260503171517 68 338 1.7 7.8 0.00 0.00 0.00 29 1006.1
20260503171017 68 315 1.7 3.5 0.00 0.00 0.00 29 1006.1
20260503170517 68 338 0.9 4.3 0.00 0.00 0.00 28 1006.2
20260503150516 62 0 0.9 4.3 0.00 0.00 0.00 39 1005.9